Flag for U.S.A. Weather past 2 weeks in Irving, Texas, U.S.A.

Now
62 °F

Passing clouds.


Feels Like: 62 °F
Forecast: 61 / 82 °F
Wind: No wind

Location: Dallas / Fort Worth International Airport

Current Time: Oct 21, 2014 at 4:49:06 AM

Latest Report: Oct 21, 2014 at 3:53 AM


Visibility: 10 mi

Pressure: 30.01 "Hg

Humidity: 86%

Dew point: 58 °F

Location of IrvingLocation

Historic Weather in Irving — Graph

°F

Irving temperature yesterday

Maximum temperature yesterday: 81 °F (at 2:53 PM)
Minimum temperature yesterday: 59 °F (at 3:53 AM)
Average temperature yesterday: 69 °F

Past Weeks' High & Low Weather Summary

 TemperatureHumidityPressure
High97 °F (Oct 7, 3:53 PM)100% (Oct 13, 6:53 AM)30.16 "Hg (Oct 13, 6:53 AM)
Low51 °F (Oct 15, 6:53 AM)19% (Oct 16, 2:53 PM)29.58 "Hg (Oct 13, 12:53 AM)
Average71 °F62%29.93 "Hg
* Reported Oct 6 3:59 AM — Oct 21 3:53 AM, Irving, Weather by CustomWeather, © 2014

Note: Actual official high and low records may vary slightly from our data, if they occured in-between our weather recording intervals... More about our weather records

Advertising

Irving weather history for previous 24 hours

 ConditionsComfort  
Time TempWeatherWind HumidityBarometerVisibility
3:53 AM
Oct 21
62 °FPassing clouds.No wind86%30.01 "Hg10 mi
2:53 AM63 °FClear.No wind84%30.02 "Hg10 mi
1:53 AM65 °FClear.No wind78%30.02 "Hg10 mi
12:53 AM67 °FPassing clouds.No wind73%30.02 "Hg10 mi
11:53 PM
Oct 20
67 °FPassing clouds.3 mph76%30.02 "Hg10 mi
10:53 PM69 °FPassing clouds.3 mph70%30.03 "Hg10 mi
9:53 PM69 °FPassing clouds.6 mph70%30.02 "Hg10 mi
8:53 PM70 °FPassing clouds.7 mph68%30.01 "Hg10 mi
7:53 PM71 °FPassing clouds.7 mph66%30.00 "Hg10 mi
6:53 PM75 °FPartly sunny.7 mph58%29.99 "Hg10 mi
5:53 PM80 °FPartly sunny.6 mph49%29.98 "Hg10 mi
4:53 PM80 °FScattered clouds.6 mph49%29.98 "Hg10 mi
3:53 PM81 °FScattered clouds.No wind47%29.98 "Hg10 mi
2:53 PM81 °FScattered clouds.No wind47%29.99 "Hg10 mi
1:53 PM79 °FScattered clouds.No wind54%30.01 "Hg10 mi
12:53 PM79 °FPassing clouds.6 mph54%30.05 "Hg10 mi
11:53 AM75 °FPassing clouds.6 mph62%30.07 "Hg10 mi
10:53 AM71 °FPassing clouds.8 mph63%30.08 "Hg10 mi
9:53 AM67 °FPassing clouds.6 mph71%30.09 "Hg10 mi
8:53 AM63 °FScattered clouds.No wind81%30.08 "Hg10 mi
7:53 AM59 °FPassing clouds.3 mph84%30.06 "Hg10 mi
6:53 AM59 °FPassing clouds.No wind84%30.05 "Hg10 mi
5:53 AM60 °FPassing clouds.3 mph80%30.03 "Hg10 mi
4:53 AM60 °FPassing clouds.No wind80%30.03 "Hg10 mi
Weather by CustomWeather, © 2014

See weather overviewHow to use our weather pages